CAPE
0 0 0 0 0 0 0 0 0 0 0 0 0 0 0 0 0 0 0 0 0 1 13 24 45 38 24 29 9 4 3 0 4 0 0 0 0 0 0 0 0 0 0
0 0 0 0 0 0 0 0 0 0 0 0 0 0 0 0 0 0 0 0 0 0 0 0 0 0 0 0 5 24 13 7 20 8 0 0 0 0 0 0 0 0 0
0 0 0 0 0 0 0 0 0 0 0 0 0 0 0 0 0 0 0 0 0 0 0 0 0 0 0 0 0 0 0 8 8 0 0 0 0 0 4 1 3 4 0
0 0 0 0 0 0 0 0 0 0 0 0 0 0 0 0 0 0 0 0 0 0 0 0 0 0 0 0 0 0 0 0 0 0 0 0 0 0 0 15 15 0 0
0 0 0 0 0 0 0 0 0 0 0 0 0 0 0 0 0 0 0 0 0 0 0 0 0 0 0 0 0 0 0 0 0 0 0 0 0 0 0 4 10 4 0
0 0 0 0 0 0 0 0 0 0 0 0 0 0 0 0 0 0 0 0 0 0 0 0 0 0 0 0 0 0 0 0 0 0 0 0 0 0 0 6 12 7 3
0 0 0 0 0 0 0 0 0 0 0 0 0 0 0 0 0 0 0 0 0 0 0 0 0 0 0 0 0 0 0 0 0 0 0 0 0 0 0 0 0 2 6
0 0 0 0 0 0 0 0 0 0 0 0 0 0 0 0 0 0 0 0 0 0 0 0 0 0 0 0 0 0 0 0 0 0 2 0 0 1 1 2 3 2 6
0 0 0 0 0 0 0 0 0 0 0 0 0 0 0 0 0 0 0 0 1 1 0 0 0 0 0 0 0 0 0 0 0 0 0 0 0 0 0 3 9 10 5
0 0 0 0 0 0 0 0 0 0 0 0 0 0 0 0 0 0 0 1 1 0 0 0 0 0 0 0 0 0 0 0 0 0 0 0 0 0 0 0 0 1 2
0 0 0 0 0 0 0 0 0 0 0 1 1 0 1 1 0 0 0 0 0 1 1 0 2 1 0 0 0 0 0 0 0 1 0 0 0 0 0 0 0 1 3
0 0 0 0 0 0 0 0 0 0 0 0 0 0 0 0 0 0 0 0 0 0 0 1 1 4 0 0 0 0 0 0 1 1 2 0 0 0 0 0 0 0 0
0 0 0 0 0 0 0 0 1 0 0 0 0 0 0 1 1 0 0 0 0 0 0 0 1 0 0 0 0 0 0 0 0 1 0 0 0 0 0 0 0 0 0
0 0 0 0 1 0 1 1 2 0 0 2 1 1 1 1 1 1 1 1 1 1 1 1 0 0 1 2 0 0 0 0 0 0 0 0 0 0 0 0 0 0 0
0 0 0 0 1 0 0 0 1 0 1 1 1 1 1 0 0 1 0 0 0 0 0 1 2 2 0 0 0 0 0 1 3 3 3 3 3 3 0 0 0 0 0
0 2 3 2 0 0 0 0 0 0 0 0 0 0 0 1 2 0 0 0 0 0 0 0 0 0 0 1 1 4 2 3 4 3 3 2 3 1 1 0 0 0 0
2 1 1 0 0 0 0 0 0 0 0 0 0 0 0 1 0 0 0 0 0 0 0 0 0 1 0 4 4 5 4 5 3 3 2 3 3 2 0 0 0 0 0
1 1 2 2 0 0 0 1 2 3 0 0 0 0 0 0 0 0 0 0 0 0 0 0 1 3 3 3 3 2 1 12 10 1 3 3 1 2 0 0 0 0 0
2 3 3 1 1 1 0 0 1 1 0 0 2 2 2 0 1 0 0 4 4 4 5 4 3 2 1 1 2 6 13 2 0 2 1 2 2 0 0 1 0 0 11
2 2 1 1 2 0 0 0 2 3 2 2 5 5 4 3 3 3 3 4 5 5 3 2 1 4 4 4 3 1 3 8 2 3 2 1 1 0 0 0 0 0 0
3 1 0 1 2 1 0 1 1 1 4 5 5 3 1 4 6 6 5 6 4 1 1 4 3 5 7 7 5 4 1 4 2 0 0 0 0 0 0 0 0 0 0
1 1 0 2 1 1 1 1 2 3 5 6 5 4 2 5 6 6 5 5 3 2 2 4 2 4 5 7 8 6 0 0 0 1 0 0 0 0 0 0 0 0 0
0 1 2 2 2 2 2 2 3 3 4 4 6 6 6 6 6 6 5 4 3 4 4 4 5 3 5 7 6 7 0 0 0 0 7 1 0 0 3 4 3 0 0
1 1 2 1 2 2 3 3 3 3 4 5 5 5 6 6 6 5 4 4 3 4 3 5 5 5 3 0 1 0 0 0 0 0 2 0 0 10 1 1 0 0 0
1 1 2 2 2 2 2 3 3 3 3 3 5 6 4 3 4 5 4 3 2 3 4 4 4 5 4 2 0 0 0 0 0 0 0 1 0 0 0 0 0 0 0
1 1 1 2 2 2 3 3 3 3 4 3 4 4 4 4 3 3 3 3 3 3 3 3 3 3 4 3 3 2 0 0 0 0 0 0 0 0 0 0 0 0 0
CIN
0 0 0 0 0 0 0 0 0 0 0 0 0 0 0 0 0 0 0 0 0 -30 -37 -111 -119 -158 -144 -131 -165 -174 -159 -35 -25 0 0 0 0 0 0 0 0 0 0
0 0 0 0 0 0 0 0 0 0 0 0 0 0 0 0 0 0 0 0 0 0 0 0 0 0 -8 0 -187 -143 -138 -164 -123 -64 0 0 0 0 0 0 0 0 0
0 0 0 0 0 0 0 0 0 0 0 0 0 0 0 0 0 0 0 0 0 0 0 0 0 0 0 0 0 0 0 -105 -73 0 0 0 0 0 -59 -9 -66 -86 0
0 0 0 0 0 0 0 0 0 0 0 0 0 0 0 0 0 0 0 0 0 0 0 0 0 0 0 0 0 0 0 0 0 0 0 0 -1 0 0 -25 -48 0 0
0 0 0 0 0 0 0 0 0 0 0 0 0 0 0 0 0 0 0 0 0 0 0 0 0 0 0 0 0 0 0 0 0 0 0 0 0 0 -13 -17 -14 -21 0
0 0 0 0 0 0 0 0 0 0 0 0 0 0 0 0 0 0 0 0 0 0 0 0 0 0 0 0 0 0 0 0 0 0 0 0 0 0 0 -4 -7 -17 -11
0 0 0 0 0 0 0 0 0 0 0 0 0 0 0 0 0 0 0 0 0 0 0 0 0 0 0 0 0 0 0 0 0 0 0 0 0 0 0 0 0 -3 -6
0 0 0 0 0 0 0 0 0 0 0 0 0 0 0 0 0 0 0 0 0 0 0 0 0 0 0 0 0 0 0 0 0 0 -3 -3 -3 -4 -4 -4 -3 -2 -5
0 0 0 0 0 0 0 0 0 0 0 0 0 0 0 0 0 0 0 0 0 0 0 0 0 0 0 0 0 0 0 0 0 0 0 0 0 0 0 -2 0 0 0
0 0 0 0 0 0 0 0 0 0 0 0 0 0 0 0 0 0 0 0 0 0 0 0 0 0 0 0 0 0 0 0 0 0 0 0 0 0 0 0 0 0 0
0 0 0 0 0 0 0 0 0 0 0 0 0 0 0 0 0 0 0 0 0 0 0 0 0 -1 -1 0 0 0 0 0 0 0 0 0 0 0 0 0 0 0 0
0 0 0 0 0 0 0 0 0 0 0 0 0 0 0 0 0 0 0 0 0 0 -1 -3 -3 -1 -1 0 0 0 0 0 0 0 0 0 0 0 0 0 -1 0 0
0 0 0 0 0 0 0 0 0 0 0 0 0 0 0 0 0 0 0 0 0 0 0 -5 -2 0 0 0 0 0 0 0 0 0 0 0 0 0 0 0 0 0 0
0 0 0 0 0 0 0 0 0 0 0 0 0 0 0 0 0 0 0 0 0 0 0 0 0 0 0 0 0 0 0 0 0 0 0 0 0 0 0 0 0 0 0
0 0 0 0 0 0 0 0 0 0 0 0 0 0 0 0 0 0 0 0 0 0 0 0 0 0 0 0 0 0 0 0 0 0 0 0 0 0 0 0 0 0 0
0 0 0 0 0 0 0 0 0 0 0 0 0 0 0 0 0 0 0 0 0 0 0 0 0 0 0 0 0 0 0 0 0 0 0 0 0 0 0 0 0 0 0
0 0 0 0 0 0 0 0 0 0 0 0 0 0 0 0 0 0 0 0 0 0 0 0 0 0 0 0 0 0 0 0 0 0 0 0 0 0 0 0 0 0 0
0 0 0 0 0 0 0 0 0 0 0 0 0 0 0 0 0 0 0 0 0 0 0 0 0 0 0 0 0 0 -6 -7 -3 -2 0 0 0 0 0 0 0 0 0
0 0 0 0 0 0 0 0 0 0 0 0 0 0 0 0 0 0 0 0 0 0 0 0 0 0 0 0 0 -6 -3 -1 0 0 0 0 0 0 0 0 0 0 0
0 0 0 0 0 0 0 0 0 0 0 0 0 0 0 0 0 0 0 0 0 0 0 0 0 0 0 0 0 0 -13 -6 -3 0 0 0 0 0 0 0 0 0 0
0 0 0 0 0 0 0 0 0 0 0 0 0 0 0 0 0 0 0 0 0 0 0 0 0 0 0 0 0 0 0 -5 0 0 0 -1 0 0 0 0 0 0 0
0 0 0 0 0 0 0 0 0 0 0 0 0 0 0 0 0 0 0 0 0 0 0 0 0 0 0 0 0 0 0 0 0 -10 0 0 0 0 0 0 0 0 0
0 0 0 0 0 0 0 0 0 0 0 0 0 0 0 0 0 0 0 0 0 0 0 0 0 0 0 0 0 0 0 0 0 0 -40 -38 0 0 -4 -28 -17 0 0
0 0 0 0 0 0 0 0 0 0 0 0 0 0 0 0 0 0 0 0 0 0 0 0 0 0 0 0 0 0 0 0 0 0 -13 -6 -4 -56 -7 -11 0 0 0
0 0 0 0 0 0 0 0 0 0 0 0 0 0 0 0 0 0 0 0 0 0 0 0 0 0 0 0 0 0 0 0 0 0 0 -59 0 0 0 0 0 0 0
0 0 0 0 0 0 0 0 0 0 0 0 0 0 0 0 0 0 0 0 0 0 0 0 0 0 0 0 0 0 0 0 0 0 0 0 0 0 0 0 0 0 0
Wind_Speed
10 13 14 17 19 21 22 24 25 26 28 29 29 29 30 29 28 28 29 29 30 30 29 30 28 29 33 31 30 31 32 31 38 39 35 34 35 35 34 34 31 32 37
13 16 18 20 22 24 25 27 28 30 30 31 32 33 32 32 33 31 31 32 33 35 34 34 33 32 34 35 36 39 38 36 39 46 41 40 37 37 36 37 36 35 36
16 18 21 24 26 27 28 30 31 32 33 34 35 35 35 35 36 34 33 32 32 32 33 35 38 38 39 40 40 41 40 40 40 44 48 43 41 38 39 39 39 38 36
20 23 25 28 29 29 30 30 31 31 32 33 33 34 35 36 35 36 37 37 38 37 38 38 39 40 42 44 44 45 45 45 44 45 46 45 42 40 37 40 42 37 39
23 24 26 27 29 31 33 34 35 35 36 37 38 38 39 39 38 41 42 41 41 42 42 42 42 43 44 44 45 46 45 46 46 46 46 44 42 39 38 37 38 39 39
23 25 27 29 31 33 34 36 38 39 41 42 43 44 45 43 43 44 42 43 43 44 46 45 45 46 46 45 44 43 42 42 43 43 44 45 42 39 38 39 41 41 39
26 28 30 32 33 35 36 38 40 42 42 44 44 44 44 44 44 44 44 44 45 45 45 45 45 42 42 43 43 43 42 41 38 38 40 40 42 38 40 43 41 39 36
30 31 32 34 36 37 39 41 42 42 43 43 42 40 40 39 39 39 40 39 39 39 39 39 40 41 40 39 39 39 39 37 35 34 35 36 36 35 32 34 35 31 30
35 36 37 39 41 42 43 43 43 42 41 39 38 39 39 38 38 38 38 37 37 37 36 35 35 36 36 36 37 38 38 37 33 32 32 34 35 36 36 36 30 27 26
38 38 39 39 40 40 40 39 38 37 38 38 39 38 38 38 38 37 37 35 36 37 36 36 35 36 37 38 38 39 40 39 38 37 35 35 34 34 32 28 25 22 19
36 36 36 36 36 34 35 35 37 37 37 37 37 38 38 37 37 37 36 35 34 36 36 36 35 34 33 34 34 33 34 37 41 40 40 39 36 34 31 26 21 17 16
35 36 35 34 32 33 34 34 35 34 34 36 38 39 37 36 35 34 34 34 33 30 30 31 32 31 34 35 32 30 29 29 34 40 40 39 36 33 28 24 22 19 19
36 35 33 32 32 32 32 32 32 33 35 36 37 36 36 35 34 33 31 32 33 30 26 26 24 27 29 28 23 21 22 24 23 28 38 36 31 28 26 26 26 27 30
31 30 30 31 32 32 30 30 31 33 34 32 31 32 33 30 28 28 28 31 30 27 25 23 22 17 7 7 8 9 11 12 16 21 26 30 29 27 26 25 27 29 30
28 29 30 29 30 31 30 28 29 27 24 25 25 25 26 21 14 8 10 12 5 9 3 1 4 4 7 6 5 5 6 6 6 8 7 17 26 23 22 20 21 29 30
28 28 28 28 29 29 27 28 25 23 23 24 25 21 18 12 7 9 8 6 3 3 4 5 4 4 5 7 7 7 4 7 10 12 13 12 3 14 17 17 18 25 29
27 27 25 27 27 24 22 23 28 25 22 26 12 5 5 10 11 10 8 5 1 4 2 2 3 3 4 4 7 7 6 4 2 3 8 11 7 3 8 11 11 19 24
25 23 24 23 18 13 17 18 20 18 15 8 5 5 8 11 9 7 7 4 1 5 2 2 2 4 5 7 8 7 7 4 9 4 11 16 14 8 6 12 12 15 19
25 22 23 19 13 9 8 17 13 11 7 4 5 5 7 9 4 3 4 3 4 3 5 6 7 6 4 12 12 11 11 16 14 12 27 25 23 22 25 20 21 16 12
23 24 22 21 4 7 5 11 8 7 7 4 4 4 6 4 5 5 5 6 5 5 6 10 16 12 14 13 17 16 14 20 22 24 33 33 31 28 25 23 24 20 13
23 23 20 21 16 4 5 5 10 7 3 5 3 3 5 5 7 6 6 5 8 9 8 9 11 14 14 13 15 17 18 18 23 28 28 28 28 27 27 29 27 26 22
22 24 20 20 19 14 10 10 4 1 4 2 1 3 5 6 11 11 4 4 6 9 6 9 11 12 15 14 12 19 17 17 19 21 27 27 27 27 27 28 26 25 22
22 23 21 19 22 18 20 23 20 14 14 11 8 13 13 6 9 10 3 3 4 5 6 8 8 11 12 12 14 16 12 8 11 17 28 28 26 28 28 29 27 24 20
19 20 22 24 21 22 20 22 23 23 22 19 19 20 22 25 12 10 4 2 2 6 7 13 13 16 15 16 13 11 11 10 7 9 18 21 25 26 26 24 22 19 16
18 18 20 23 25 25 19 21 23 23 25 25 23 19 19 22 25 22 20 19 17 18 20 22 22 23 23 22 22 22 20 17 14 10 8 18 17 19 20 21 21 22 22
17 18 20 22 25 22 18 17 20 22 24 25 26 25 23 22 22 22 24 26 27 22 22 22 24 29 31 30 26 23 23 23 20 16 13 13 2 21 22 23 22 22 21
Wind_Direction
346 332 333 330 328 326 324 321 322 323 323 321 320 319 318 318 314 309 306 306 304 303 303 299 295 298 298 294 298 299 298 299 299 303 302 304 303 303 304 304 305 304 305
338 334 327 327 326 325 324 323 321 320 320 319 317 316 315 314 312 311 308 305 301 299 299 301 299 303 298 300 300 298 298 297 296 297 300 299 298 299 299 299 300 301 302
336 332 327 325 325 324 325 324 323 321 320 318 317 316 315 314 312 311 309 307 305 302 302 300 300 301 299 300 300 300 300 299 297 297 297 299 298 298 297 296 297 298 299
340 334 330 326 324 324 326 326 326 326 323 322 322 320 318 314 312 310 308 306 303 302 302 301 300 299 299 299 299 298 298 296 296 296 296 297 297 298 296 295 295 296 296
341 335 332 332 329 326 324 323 323 322 321 319 318 316 315 313 311 309 307 305 303 301 301 301 300 300 300 300 299 298 298 296 295 294 293 294 295 296 295 297 295 295 295
345 342 338 334 331 328 326 324 321 319 318 316 314 313 311 310 309 308 306 303 302 301 300 300 299 299 299 298 297 297 297 297 296 295 294 293 293 294 295 294 292 292 292
342 338 335 333 330 328 326 325 323 320 319 317 315 314 312 310 309 307 305 303 302 301 300 300 300 300 300 299 297 296 294 293 291 292 292 291 292 293 293 291 290 289 290
340 338 337 335 333 330 328 325 324 324 323 322 321 321 319 319 317 316 313 311 309 308 306 305 304 303 301 300 299 299 299 298 297 295 294 295 294 295 295 295 292 289 291
335 332 334 334 331 330 328 327 327 327 328 329 329 328 326 325 323 320 318 315 313 311 311 310 309 309 307 304 302 300 299 299 300 298 296 296 295 293 294 295 295 291 290
333 335 335 335 335 334 334 335 335 335 334 334 333 333 330 328 327 325 323 320 316 314 313 311 309 306 305 304 301 299 297 297 297 297 296 296 295 295 294 292 290 281 284
339 340 340 341 340 342 341 340 340 340 340 340 339 338 336 334 332 329 326 323 319 316 315 314 313 311 310 309 306 302 300 299 296 294 293 292 293 293 292 292 288 282 285
343 343 343 344 346 344 344 346 347 347 347 345 343 342 341 340 337 334 330 323 320 325 326 322 320 318 314 311 310 308 307 306 302 292 289 289 288 289 288 284 282 286 293
343 345 347 347 347 349 351 353 353 353 351 350 350 352 353 352 350 345 337 325 318 326 334 334 334 330 325 322 319 313 310 309 306 302 288 287 288 289 287 284 279 278 279
348 350 348 349 352 355 359 360 359 357 358 1 3 2 2 6 10 10 2 338 322 339 344 348 350 350 312 290 298 318 321 313 310 308 301 292 288 286 284 281 275 270 265
352 350 351 357 0 0 3 9 8 12 17 15 14 13 14 21 19 328 292 280 257 36 28 251 262 265 268 279 294 294 282 267 247 229 224 293 287 289 286 284 274 260 253
353 353 358 5 5 7 16 16 23 25 24 22 18 23 28 28 325 302 290 281 248 213 207 244 278 293 297 299 301 292 301 236 218 213 207 197 216 300 289 284 273 258 249
356 359 11 9 13 24 28 28 23 29 34 30 37 340 327 303 304 311 316 315 162 133 202 283 314 349 336 10 345 315 304 329 354 227 209 191 158 336 303 291 282 257 248
359 12 15 19 36 49 41 43 40 46 44 29 8 346 318 314 311 316 317 310 17 84 52 25 23 6 355 16 21 3 5 342 61 127 170 168 142 115 104 268 262 254 248
360 21 21 33 55 66 67 52 63 61 53 14 355 4 344 330 333 345 339 51 13 0 28 29 20 8 27 56 50 56 56 64 74 93 87 97 107 110 138 211 213 231 249
10 20 33 37 139 96 113 79 79 81 74 51 25 360 350 34 41 40 28 40 60 41 25 34 60 60 78 63 63 75 73 77 83 94 103 117 127 135 138 145 169 199 241
10 26 43 43 297 158 181 125 89 96 89 80 53 27 346 86 85 62 35 19 57 56 53 20 37 55 68 64 58 72 78 80 89 95 106 115 118 126 143 139 139 153 173
6 16 51 53 321 300 282 289 258 229 288 301 2 354 350 89 81 75 49 48 23 67 54 36 47 41 58 55 54 75 81 82 85 101 105 110 111 112 122 139 143 147 157
358 4 46 72 34 329 336 348 337 315 317 313 316 327 334 338 332 80 353 78 36 29 21 32 35 29 38 46 57 66 64 60 89 101 96 100 115 105 112 137 113 128 155
357 359 12 53 77 11 347 348 351 354 351 335 336 339 345 351 334 334 344 46 346 340 346 346 354 356 357 1 9 26 39 43 68 116 113 112 110 108 108 121 130 138 156
358 0 9 19 28 37 346 352 355 358 360 357 347 334 331 339 350 343 337 339 337 336 340 341 341 342 343 345 348 349 350 355 359 5 112 113 119 116 115 115 117 116 117
7 7 9 16 20 4 349 342 349 353 356 358 358 351 342 337 336 334 339 346 349 335 334 333 333 343 347 345 339 336 339 342 342 342 340 339 47 96 91 88 90 91 94